Regional Weather Roundup
Issued by NWS

Home | Current Version | Previous Version | Graphics & Text | Print | Product List | Glossary On
Versions: 1 2 3 4 5 6 7 8 9 10 11 12 13 14 15 16 17 18 19 20 21 22 23 24 25 26 27 28 29 30 31 32 33 34 35 36 37 38 39 40 41 42 43 44 45 46 47 48 49 50
000
ASUS45 KBOU 050907
RWRCO

WEATHER ROUNDUP FOR COLORADO
NATIONAL WEATHER SERVICE DENVER/BOULDER CO
200 AM MST THU MAR 05 2015

NOTE: "FAIR" INDICATES FEW OR NO CLOUDS BELOW 12000 FEET WITH NO
SIGNIFICANT WEATHER AND/OR OBSTRUCTIONS TO VISIBILITY.

COZ001>005-013-030-031-051000-
...NORTHWEST COLORADO...

CITY           SKY/WX    TMP DP  RH WIND       PRES   REMARKS
CRAIG          PTCLDY     4  -1  80 CALM      30.32R
HAYDEN         PTCLDY     7  -2  66 E12       30.30R WCI  -9
MEEKER         PTCLDY    11   2  67 SE6       30.32R WCI   1
MOUNT WERNER   NOT AVBL
STEAMBOAT SPGS CLOUDY     2  -4  75 CALM      30.31R
WALDEN         PTCLDY     0  -8  71 S7        30.20R WCI -13
$$

COZ006>008-011-051000-
...WEST CENTRAL VALLEYS...

CITY           SKY/WX    TMP DP  RH WIND       PRES   REMARKS
GRAND JUNCTION CLEAR     22  13  68 SE12      30.34R WCI  10
MONTROSE       PTCLDY    22  12  65 SE8       30.37R WCI  12
EAGLE          PTCLDY     7   1  78 CALM      30.39R
RIFLE          PTCLDY    19   8  62 S5        30.38R WCI  12
DELTA          PTCLDY    24  13  63 NE8       30.38R WCI  15
NUCLA          PTCLDY    23  14  68 E9        30.37R WCI  13
$$

COZ017>023-064>068-051000-
...SOUTHWEST COLORADO...

CITY           SKY/WX    TMP DP  RH WIND       PRES   REMARKS
DURANGO        PTCLDY    14   6  70 CALM      30.27R
CORTEZ         CLEAR     20  12  71 NE7       30.32R WCI  11
PAGOSA SPRINGS PTCLDY     2  -3  77 CALM      30.27R
TELLURIDE      PTCLDY     8   1  71 SE6       30.29R WCI  -2
WOLF CREEK PAS   N/A      3   1  92 N14       30.18S WCI -15
$$

COZ009-010-012-014-032>034-037-058>063-051000-
...CENTRAL COLORADO...

CITY           SKY/WX    TMP DP  RH WIND       PRES   REMARKS
ASPEN          PTCLDY     2  -6  69 SW10      30.30R WCI -14
BUENA VISTA    PTCLDY     7  -6  55 W8        30.22R WCI  -6
COPPER MTN     NOT AVBL
BERTHOUD PASS  CLOUDY    -8 -15  71 NW28G36   30.01S WCI -35
COTTONWOOD PAS PTCLDY    12 -15  29 NW6       30.15R WCI   3
GUNNISON       PTCLDY     0  -6  78 E7        30.34R WCI -13
KREMMLING      PTCLDY     3  -4  72 CALM      30.33R
LEADVILLE      PTCLDY   -11 -19  68 N8        30.18R WCI -28
SALIDA         PTCLDY    13   0  55 NW10      30.32R WCI   0
SUNLIGHT       PTCLDY     9   3  78 SW3         N/A
WILKERSON PASS PTCLDY     7 -18  30 NW14G21   30.09R WCI -10
$$

COZ069>075-051000-
...SAN LUIS VALLEY/SANGRE DE CRISTO MOUNTAINS...

CITY           SKY/WX    TMP DP  RH WIND       PRES   REMARKS
ALAMOSA        PTCLDY    11   4  73 W5        30.25R WCI   3
LA VETA PASS   PTCLDY     5  -2  72 MISG      30.12R
SAGUACHE       CLEAR     18  -2  41 N12       30.25R WCI   5
$$

COZ035-036-038>040-051000-
...NORTHERN COLORADO FRONT RANGE...

CITY           SKY/WX    TMP DP  RH WIND       PRES   REMARKS
DENVER INTL AP PTCLDY    13   0  56 S15       30.17S WCI  -3
DMNS CITY PARK   N/A     11   4  71 S6        30.19S WCI   2
AURORA         CLEAR     11   2  67 S13       30.17S WCI  -5
FRONT RANGE AP PTCLDY     9   0  66 S14       30.18S WCI  -8
ERIE MUNI ARPT CLEAR      4   1  88 CALM      30.20S
BOULDER MUN AP CLEAR     10   7  85 S3        30.18S
CENTENNIAL     CLEAR     10  -1  61 S7        30.17S WCI  -1
BROOMFIELD     CLEAR     12   9  85 S5        30.17S WCI   4
FORT COLLINS   PTCLDY     7   3  85 N6        30.20F WCI  -3
LONGMONT       PTCLDY     7   2  81 NW3       30.21S
$$

COZ041-046-047-076>085-087-088-051000-
...PIKES PEAK/PALMER DIVIDE AND SOUTHERN FOOTHILLS...

CITY           SKY/WX    TMP DP  RH WIND       PRES   REMARKS
COLO. SPRINGS  PTCLDY     0  -4  83 N8        30.22S WCI -14
A. F. ACADEMY  MOCLDY    -4  -9  77 N12       30.17F WCI -22
ELLICOTT       NOT AVBL
FALCON         PTCLDY     3  -1  84 W10       30.17S WCI -12
FORT CARSON    PTCLDY     0  -4  84 NW7       30.22S WCI -13
LIMON          CLEAR      1  -4  79 NW8       30.22S WCI -13
MONUMENT HILL  PTCLDY     3  -4  72 SW12      30.13S WCI -13
TRINIDAD       PTCLDY     3  -1  83 W8        30.26S WCI -10
$$

COZ042>045-048>051-090-091-051000-
...NORTHEAST COLORADO...

CITY           SKY/WX    TMP DP  RH WIND       PRES   REMARKS
GREELEY ARPT   PTCLDY     7   0  72 N3        30.21S
AKRON          CLEAR     10   6  84 SW8       30.22S WCI  -2
BURLINGTON     CLEAR     15   8  73 W13       30.27S WCI   1
WRAY           CLEAR     11   8  86 SW7       30.28F WCI   0
STERLING       CLEAR     10   7  85 SW8       30.26S WCI  -1
HOLYOKE        NOT AVBL
FORT MORGAN    CLEAR      6   2  84 SW3       30.24F
$$

COZ086-089-092>099-051000-
...SOUTHEAST COLORADO...

CITY           SKY/WX    TMP DP  RH WIND       PRES   REMARKS
PUEBLO         CLOUDY     8   7  95 NW3       30.30S
LA JUNTA       CLEAR     12   7  80 W10       30.32F WCI  -1
LAMAR          CLEAR     13  10  88 SW6       30.33F WCI   4
SPRINGFIELD      N/A     11   6  81 W10       30.31S WCI  -3
$$



USA.gov is the U.S. government's official web portal to all federal, state and local government web resources and services.